• In Russia
  • List of Countries
  • For 7 days
  • Water Temperature
  • Satellite Maps
  • Weather Map
  • Weather Widgets
  • user-avatar
    Login

    Hourly Weather Eisenstadt

    Today, 24 February, Friday

    Time Temperature Precipitation Wind Pressure Humidity
    00:00 +5°C° 0 mm 4 mps 711 mmHg 82%
    01:00 +4°C° 0 mm 4 mps 711 mmHg 83%
    02:00 +4°C° 0 mm 3 mps 711 mmHg 84%
    03:00 +4°C° 0 mm 3 mps 711 mmHg 84%
    04:00 +4°C° 0 mm 3 mps 711 mmHg 84%
    05:00 +4°C° 0 mm 3 mps 712 mmHg 85%
    06:00 +4°C° 0 mm 4 mps 712 mmHg 86%
    07:00 +4°C° 0 mm 4 mps 713 mmHg 86%
    08:00 +4°C° 0.1 mm 4 mps 713 mmHg 83%
    09:00 +3°C° 0.1 mm 5 mps 714 mmHg 79%
    10:00 +5°C° 0.1 mm 5 mps 715 mmHg 76%
    11:00 +5°C° 0.2 mm 5 mps 715 mmHg 76%
    12:00 +4°C° 0.2 mm 4 mps 715 mmHg 77%
    13:00 +4°C° 0.2 mm 4 mps 716 mmHg 77%
    14:00 +4°C° 0.1 mm 4 mps 716 mmHg 77%
    15:00 +4°C° 0.1 mm 3 mps 716 mmHg 77%
    16:00 +3°C° 0.1 mm 3 mps 717 mmHg 77%
    17:00 +3°C° 0.2 mm 3 mps 718 mmHg 78%
    18:00 +2°C° 0.2 mm 3 mps 718 mmHg 79%
    19:00 +2°C° 0.2 mm 3 mps 719 mmHg 80%
    20:00 +1°C° 0.1 mm 3 mps 720 mmHg 80%
    21:00 +1°C° 0.1 mm 3 mps 720 mmHg 80%
    22:00 +1°C° 0.1 mm 3 mps 721 mmHg 80%
    23:00 0°C° 0 mm 3 mps 722 mmHg 80%

    Tomorrow, 25 February, Saturday

    Time Temperature Precipitation Wind Pressure Humidity
    00:00 0°C° 0 mm 3 mps 722 mmHg 81%
    01:00 0°C° 0 mm 3 mps 723 mmHg 82%
    02:00 -1°C° 0 mm 2 mps 723 mmHg 83%
    03:00 -1°C° 0 mm 2 mps 723 mmHg 85%
    04:00 -2°C° 0 mm 2 mps 723 mmHg 86%
    05:00 -2°C° 0 mm 2 mps 724 mmHg 86%
    06:00 -2°C° 0 mm 2 mps 724 mmHg 86%
    07:00 -2°C° 0 mm 2 mps 725 mmHg 87%
    08:00 -1°C° 0 mm 3 mps 725 mmHg 78%
    09:00 +1°C° 0 mm 3 mps 726 mmHg 70%
    10:00 +1°C° 0 mm 4 mps 726 mmHg 62%
    11:00 +3°C° 0 mm 3 mps 726 mmHg 58%
    12:00 +3°C° 0 mm 3 mps 726 mmHg 54%
    13:00 +4°C° 0 mm 3 mps 727 mmHg 51%
    14:00 +5°C° 0 mm 2 mps 726 mmHg 52%
    15:00 +5°C° 0 mm 2 mps 726 mmHg 54%
    16:00 +6°C° 0 mm 1 mps 726 mmHg 56%
    17:00 +4°C° 0 mm 1 mps 726 mmHg 62%
    18:00 +3°C° 0 mm 1 mps 726 mmHg 68%
    19:00 +1°C° 0 mm 1 mps 727 mmHg 74%
    20:00 -1°C° 0 mm 2 mps 727 mmHg 74%
    21:00 -1°C° 0 mm 2 mps 727 mmHg 75%
    22:00 -1°C° 0 mm 2 mps 727 mmHg 75%
    23:00 -1°C° 0 mm 2 mps 727 mmHg 76%

    Day after tomorrow, 26 February, Sunday

    Time Temperature Precipitation Wind Pressure Humidity
    00:00 -1°C° 0 mm 3 mps 727 mmHg 77%
    01:00 -1°C° 0 mm 3 mps 726 mmHg 77%
    02:00 -1°C° 0 mm 3 mps 726 mmHg 77%
    03:00 -2°C° 0 mm 3 mps 726 mmHg 77%
    04:00 -2°C° 0 mm 3 mps 725 mmHg 76%
    05:00 -2°C° 0 mm 3 mps 725 mmHg 75%
    06:00 -2°C° 0 mm 3 mps 725 mmHg 74%
    07:00 -2°C° 0 mm 3 mps 724 mmHg 73%
    08:00 0°C° 0 mm 3 mps 724 mmHg 67%
    09:00 +1°C° 0 mm 4 mps 724 mmHg 61%
    10:00 +4°C° 0 mm 4 mps 724 mmHg 55%
    11:00 +5°C° 0 mm 4 mps 724 mmHg 54%
    12:00 +7°C° 0 mm 3 mps 724 mmHg 52%
    13:00 +8°C° 0 mm 3 mps 723 mmHg 51%
    14:00 +7°C° 0 mm 3 mps 723 mmHg 56%
    15:00 +7°C° 0 mm 3 mps 723 mmHg 62%
    16:00 +6°C° 0 mm 2 mps 723 mmHg 67%
    17:00 +5°C° 0 mm 2 mps 723 mmHg 70%
    18:00 +4°C° 0 mm 2 mps 722 mmHg 73%
    19:00 +3°C° 0 mm 2 mps 722 mmHg 76%
    20:00 +3°C° 0 mm 2 mps 722 mmHg 77%
    21:00 +3°C° 0 mm 2 mps 722 mmHg 77%
    22:00 +2°C° 0 mm 2 mps 722 mmHg 77%
    23:00 +2°C° 0 mm 2 mps 722 mmHg 78%

    27 February, Monday

    Time Temperature Precipitation Wind Pressure Humidity
    00:00 +1°C° 0 mm 2 mps 722 mmHg 80%
    01:00 +1°C° 0 mm 2 mps 721 mmHg 81%
    02:00 +1°C° 0 mm 2 mps 721 mmHg 81%
    03:00 -1°C° 0 mm 2 mps 721 mmHg 81%
    04:00 +1°C° 0 mm 1 mps 721 mmHg 81%
    05:00 -1°C° 0 mm 2 mps 720 mmHg 81%
    06:00 -1°C° 0 mm 2 mps 720 mmHg 80%
    07:00 -1°C° 0 mm 2 mps 720 mmHg 79%
    08:00 +2°C° 0 mm 2 mps 720 mmHg 73%
    09:00 +4°C° 0 mm 2 mps 720 mmHg 66%
    10:00 +7°C° 0 mm 3 mps 720 mmHg 60%
    11:00 +8°C° 0 mm 3 mps 720 mmHg 59%
    12:00 +7°C° 0 mm 4 mps 719 mmHg 58%
    13:00 +8°C° 0 mm 4 mps 719 mmHg 58%
    14:00 +8°C° 0 mm 4 mps 718 mmHg 61%
    15:00 +8°C° 0 mm 5 mps 717 mmHg 65%
    16:00 +7°C° 0 mm 5 mps 717 mmHg 68%
    17:00 +6°C° 0 mm 4 mps 716 mmHg 74%
    18:00 +5°C° 0 mm 4 mps 716 mmHg 80%
    19:00 +3°C° 0 mm 4 mps 716 mmHg 86%
    20:00 +3°C° 0 mm 4 mps 716 mmHg 86%
    21:00 +1°C° 0 mm 4 mps 715 mmHg 85%
    22:00 +1°C° 0 mm 4 mps 715 mmHg 84%
    23:00 0°C° 0 mm 4 mps 715 mmHg 85%

    28 February, Tuesday

    Time Temperature Precipitation Wind Pressure Humidity
    00:00 0°C° 0 mm 4 mps 714 mmHg 86%
    01:00 +1°C° 0 mm 3 mps 714 mmHg 86%
    02:00 0°C° 0 mm 4 mps 713 mmHg 87%
    03:00 0°C° 0 mm 4 mps 713 mmHg 87%
    04:00 0°C° 0 mm 4 mps 713 mmHg 87%
    05:00 0°C° 0 mm 3 mps 713 mmHg 87%
    06:00 0°C° 0 mm 3 mps 713 mmHg 87%
    07:00 +1°C° 0 mm 2 mps 714 mmHg 88%
    08:00 +3°C° 0 mm 2 mps 714 mmHg 81%
    09:00 +5°C° 0 mm 2 mps 715 mmHg 73%
    10:00 +7°C° 0 mm 2 mps 715 mmHg 66%
    11:00 +7°C° 0.1 mm 3 mps 714 mmHg 69%
    12:00 +8°C° 0.1 mm 3 mps 714 mmHg 72%
    13:00 +7°C° 0.1 mm 4 mps 714 mmHg 75%
    14:00 +7°C° 0.3 mm 5 mps 713 mmHg 78%
    15:00 +7°C° 0.3 mm 5 mps 712 mmHg 82%
    16:00 +7°C° 0.3 mm 6 mps 712 mmHg 85%
    17:00 +5°C° 0.1 mm 6 mps 711 mmHg 86%
    18:00 +5°C° 0.1 mm 6 mps 711 mmHg 86%
    19:00 +5°C° 0.1 mm 7 mps 711 mmHg 87%
    20:00 +5°C° 0.6 mm 6 mps 711 mmHg 87%
    21:00 +4°C° 0.6 mm 6 mps 712 mmHg 87%
    22:00 +4°C° 0.6 mm 6 mps 712 mmHg 87%
    23:00 +3°C° 0.1 mm 5 mps 713 mmHg 85%

    1 March, Wednesday

    Time Temperature Precipitation Wind Pressure Humidity
    00:00 +3°C° 0.1 mm 4 mps 713 mmHg 84%
    01:00 +3°C° 0.1 mm 3 mps 713 mmHg 83%
    02:00 +4°C° 0 mm 2 mps 714 mmHg 83%
    03:00 +3°C° 0 mm 2 mps 714 mmHg 83%
    04:00 +3°C° 0 mm 2 mps 715 mmHg 83%
    05:00 +3°C° 0 mm 2 mps 715 mmHg 83%
    06:00 +2°C° 0 mm 2 mps 716 mmHg 84%
    07:00 +2°C° 0 mm 2 mps 716 mmHg 85%
    08:00 +3°C° 0 mm 3 mps 717 mmHg 77%
    09:00 +4°C° 0 mm 4 mps 718 mmHg 70%
    10:00 +5°C° 0 mm 6 mps 718 mmHg 63%
    11:00 +7°C° 0.1 mm 6 mps 718 mmHg 59%
    12:00 +8°C° 0.1 mm 6 mps 719 mmHg 56%
    13:00 +8°C° 0.1 mm 6 mps 719 mmHg 53%
    14:00 +8°C° 0 mm 5 mps 719 mmHg 56%
    15:00 +8°C° 0 mm 4 mps 719 mmHg 58%
    16:00 +10°C° 0 mm 3 mps 719 mmHg 61%
    17:00 +8°C° 0 mm 2 mps 719 mmHg 68%
    18:00 +7°C° 0 mm 2 mps 719 mmHg 74%
    19:00 +5°C° 0 mm 2 mps 719 mmHg 81%
    20:00 +4°C° 0 mm 3 mps 719 mmHg 81%
    21:00 +5°C° 0 mm 3 mps 719 mmHg 81%
    22:00 +5°C° 0 mm 3 mps 719 mmHg 81%
    23:00 +5°C° 0 mm 3 mps 719 mmHg 81%
    Show more